Regional Weather Roundup
Issued by NWS San Angelo, TX

Home | Current Version | Previous Version | Text Only | Print | Product List | Glossary On
Versions: 1 2 3 4 5 6 7 8 9 10 11 12 13 14 15 16 17 18 19 20 21 22 23 24 25 26 27 28 29 30 31 32 33 34 35 36 37 38 39 40 41 42 43 44 45 46 47 48 49 50
000
ASUS44 KSJT 301710
RWRSJT
WEST CENTRAL TEXAS REGIONAL WEATHER ROUNDUP
NATIONAL WEATHER SERVICE SAN ANGELO TX
1200 PM CDT TUE JUN 30 2015

NOTE: "FAIR" INDICATES FEW OR NO CLOUDS BELOW 12,000 FEET WITH NO
SIGNIFICANT WEATHER AND/OR OBSTRUCTIONS TO VISIBILITY.

TXZ049-054-064>066-071>073-076>078-098-099-113-114-127-128-139-140-
154-155-168>170-301800
...LOCATIONS ACROSS WEST CENTRAL TEXAS...

CITY           SKY/WX    TMP DP  RH WIND       PRES   REMARKS
SAN ANGELO     MOSUNNY   82  70  66 S13       30.08F
ABILENE        SUNNY     85  65  51 CALM      30.09S
DYESS AFB      MOSUNNY   84  66  53 SW6       30.07F
JUNCTION       MOSUNNY   85  64  49 S7        30.09F
SWEETWATER     PTSUNNY   81  59  46 S3        30.14R
BROWNWOOD      MOSUNNY   86  70  58 S7        30.08F
COLEMAN        MOSUNNY   85  71  61 S7        30.09F
SONORA         MOSUNNY   82  68  61 VRB3      30.14F
OZONA          NOT AVBL
BRADY          MOSUNNY   86  68  54 N10       30.09S
$$

TEXAS PANHANDLE/OKLAHOMA PANHANDLE

CITY           SKY/WX    TMP DP  RH WIND       PRES   REMARKS
AMARILLO       SUNNY     82  57  42 SW8       30.16F
BORGER         SUNNY     84  60  44 W8        30.12F
CANADIAN       SUNNY     87  59  38 W9        30.07F
DALHART        SUNNY     85  57  38 S12       30.17F
DUMAS          SUNNY     82  56  41 SW10      30.15F
GUYMON         NOT AVBL
HEREFORD       SUNNY     83  57  40 MISG      30.17F
PAMPA          SUNNY     83  56  39 W10       30.14F
PERRYTON       SUNNY     88  55  32 SW9       30.10S
$$

SOUTHERN PANHANDLE/SOUTH PLAINS/ROLLING PLAINS

CITY           SKY/WX    TMP DP  RH WIND       PRES   REMARKS
LUBBOCK        MOSUNNY   82  61  48 E6        30.14S
SNYDER         MOSUNNY   76  64  66 S9        30.13S
CHILDRESS      SUNNY     82  63  52 CALM      30.08F
SEMINOLE       MOSUNNY   81  60  48 W8        30.15S
$$

PERMIAN BASIN

CITY           SKY/WX    TMP DP  RH WIND       PRES   REMARKS
MIDLAND        MOSUNNY   76  61  59 S3        30.13R
ODESSA         PTSUNNY   75  59  57 SW5       30.14R
WINK           PTSUNNY   75  62  64 S7        30.11F
$$

FAR WEST/SOUTHWEST MOUNTAINS/TRANS PECOS

CITY           SKY/WX    TMP DP  RH WIND       PRES   REMARKS
ALPINE         NOT AVBL
DRYDEN           N/A     84  68  58 E8        30.07S
EL PASO        PTSUNNY   84  56  38 E8        30.13F
FORT STOCKTON  PTSUNNY   81  58  45 E9        30.12F
GUADALUPE PASS PTSUNNY   70  59  68 E14       30.26F
MARFA          PTSUNNY  N/A N/A N/A N10       30.23F
PECOS          CLOUDY    73  62  68 N5        30.12S
$$

DALLAS/FORT WORTH METROPLEX

CITY           SKY/WX    TMP DP  RH WIND       PRES   REMARKS
DFW AIRPORT    MOSUNNY   89  70  53 S14       30.02F
FTW MEACHAM    SUNNY     87  73  62 S13       30.02F
DAL-EXECUTIVE  SUNNY     86  70  58 SW7       30.03S
GRAND PRAIRIE  SUNNY     88  72  58 SW9       30.04F
ADDISON        SUNNY     88  68  51 S10G16    30.03F
MESQUITE       SUNNY     88  68  51 SE6       30.04S
LANCASTER      SUNNY     86  69  57 SW7       30.04S
$$

NORTH CENTRAL TEXAS

CITY           SKY/WX    TMP DP  RH WIND       PRES   REMARKS
SHRMAN/DENISON SUNNY     88  73  62 SW8       30.03F
GAINESVILLE    SUNNY     85  71  63 S8        30.05S
BRIDGEPORT     SUNNY     86  71  59 SW5       30.06S
DENTON         SUNNY     87  71  58 SW14      30.03S
WAXAHACHIE     SUNNY     85  73  67 W10       30.05S
GRANBURY       CLOUDY    88  72  58 S7        30.05S
$$

WESTERN NORTH TEXAS

CITY           SKY/WX    TMP DP  RH WIND       PRES   REMARKS
WICHITA FALLS  SUNNY     88  67  49 CALM      30.03S
VERNON         SUNNY     90  56  31 W5        30.06S
BRECKENRIDGE   SUNNY     88  62  42 S7        30.05F
COMANCHE       MOSUNNY   85  72  63 SW8       30.08S
$$

CENTRAL AND SOUTH CENTRAL TEXAS

CITY           SKY/WX    TMP DP  RH WIND       PRES   REMARKS
AUSTIN/BERGSTM PTSUNNY   87  74  64 S9        30.04F
WACO           MOSUNNY   84  72  67 S10       30.05S
HILLSBORO      SUNNY     84  71  65 SW8       30.04F
TEMPLE         MOSUNNY   82  72  69 SE6       30.03F
KILLEEN-GRAY   MOSUNNY   86  72  63 SW10      30.05F
FORT HOOD      MOSUNNY   87  73  62 S10       30.04F
GEORGETOWN     MOSUNNY   88  73  62 S12       30.04F
LAGO VISTA     FAIR      87  70  56 SW7       30.08F
SAN MARCOS     MOSUNNY   88  73  62 SW9       30.05F
NEW BRAUNFELS  MOSUNNY   88  74  63 VRB7      30.04S
RANDOLPH AFB   MOSUNNY   87  73  63 SW8       30.05F
SAN ANTONIO    PTSUNNY   88  73  61 SE7       30.06F
STINSON        PTSUNNY   87  73  62 S9        30.03S
PLEASANTON     NOT AVBL
LA GRANGE      PTSUNNY   89  78  70 S5        30.03F
GIDDINGS       MOSUNNY   87  72  62 SW9       30.08F
$$

EAST TEXAS

CITY           SKY/WX    TMP DP  RH WIND       PRES   REMARKS
PARIS          SUNNY     88  68  51 W14       30.03S
CLARKSVILLE    NOT AVBL
TYLER          SUNNY     87  66  49 SW8       30.04F
LONGVIEW       SUNNY     88  69  53 W9        30.02F
PALESTINE      MOSUNNY   85  73  67 SW5       30.05S
NACOGDOCHES    MOSUNNY  N/A N/A N/A W7        30.04F
$$

TEXAS HILL COUNTRY AND EDWARDS PLATEAU

CITY           SKY/WX    TMP DP  RH WIND       PRES   REMARKS
LLANO          SUNNY     88  70  55 S7        30.09F
HORSESHOE BAY  PTSUNNY   89  71  55 SW6       30.07S
KERRVILLE      MOSUNNY   82  72  71 S5        30.10F
FREDERICKSBRG  MOSUNNY   83  68  60 SW7       30.09F
ROCKSPRINGS    PTSUNNY   75  72  88 SE9       30.14S HAZE
HONDO          PTSUNNY   83  76  79 CALM      30.07F
UVALDE         MOSUNNY   84  74  71 S7        30.05F
DEL RIO        CLOUDY    83  73  72 E9        30.03S
$$

SOUTHEAST TEXAS

CITY           SKY/WX    TMP DP  RH WIND       PRES   REMARKS
COLLEGE STN    PTSUNNY   84  75  74 SW5       30.05F
CALDWELL       PTSUNNY   84  75  74 S7        30.08S
CROCKETT       CLOUDY    90  79  70 SW7       30.08S
BRENHAM        PTSUNNY   87  76  69 W3        30.06F
HUNTSVILLE     CLOUDY    83  73  72 SW5       30.06S
CONROE         PTSUNNY   89  72  56 W8        30.06F
HOUSTON BUSH   PTSUNNY   90  74  59 W7        30.04F
HOUSTON HOBBY  PTSUNNY   90  73  57 S9        30.04S
PERLAND        MOSUNNY   90  73  57 VRB5      30.06S
WHARTON        MOSUNNY   89  75  64 S6        30.06S
$$

THE UPPER TEXAS COAST

CITY           SKY/WX    TMP DP  RH WIND       PRES   REMARKS
ORANGE         TSTM      78  68  70 S8G18     30.06S
PORT ARTHUR    PTSUNNY   80  75  84 NW6       30.06R
GALVESTON      MOSUNNY   89  80  74 S13       30.06F
ANGLETON       MOSUNNY   87  75  67 SW8       30.06S THUNDER
BAY CITY       MOSUNNY   90  76  64 S12       30.06R
$$

TEXAS COASTAL BEND, RIO GRANDE PLAINS DEEP SOUTH TEXAS

CITY           SKY/WX    TMP DP  RH WIND       PRES   REMARKS
VICTORIA       MOSUNNY   90  70  51 S17       30.04S
BEEVILLE       FAIR      86  75  69 SE8       30.03S
ROCKPORT       PTSUNNY   88  76  67 SE18G24   30.04S
PORT ARANSAS   PTSUNNY   87  78  72 S16G24    30.04F
PORT LAVACA    MOSUNNY   89  74  63 S14G21    30.05S
CORPUS CHRISTI TSTM      79  71  76 S24G47    30.05R
KINGSVILLE NAS PTSUNNY   79  74  84 SE20G28   30.04R THUNDER
COTULLA        MOSUNNY   89  73  59 SE13      30.01S
LAREDO         PTSUNNY   89  71  55 S17       30.01F
BROWNSVILLE    CLOUDY    78  76  93 SE7       30.06F
PORT ISABEL    NOT AVBL
HEBBRONVILLE     N/A     86  70  57 SE16      30.03S
MCALLEN        LGT RAIN  80  73  79 SE14      30.05R
WESLACO        RAIN      74  71  91 S5        30.06R
FALFURRIAS     PTSUNNY   83  72  69 SE18G29   30.03R
EDINBURG       LGT RAIN  76  72  85 SE18G25   30.07R
$$



USA.gov is the U.S. government's official web portal to all federal, state and local government web resources and services.